Regional Weather Roundup
Issued by NWS Little Rock, AR

Home | Current Version | Previous Version | Graphics & Text | Print | Product List | Glossary On
Versions: 1 2 3 4 5 6 7 8 9 10 11 12 13 14 15 16 17 18 19 20 21 22 23 24 25 26 27 28 29 30 31
000
ASUS44 KLZK 231205
RWRLZK

WEATHER ROUNDUP FOR ARKANSAS
NATIONAL WEATHER SERVICE LITTLE ROCK AR
700 AM CDT TUE MAY 23 2017

NOTE: "FAIR" INDICATES FEW OR NO CLOUDS BELOW 12,000 FEET WITH NO
SIGNIFICANT WEATHER AND/OR OBSTRUCTIONS TO VISIBILITY.

ARZ001-003-010-029-231300-
NORTHWEST ARKANSAS

CITY           SKY/WX    TMP DP  RH WIND       PRES   REMARKS
FAYETTEVILLE   CLOUDY    59  58  96 W5        29.87S
6HR MIN TEMP:  56; 6HR MAX TEMP:  61; 6HR PCP: TRACE;

FORT SMITH     MOCLDY    64  59  83 W7        29.86R
6HR MIN TEMP:  63; 6HR MAX TEMP:  66; 6HR PCP: TRACE;

HARRISON       CLOUDY    60  55  83 W5        29.85S
6HR MIN TEMP:  56; 6HR MAX TEMP:  60;

BENTONVILLE    CLOUDY    59  55  88 W5        29.88R
6HR MIN TEMP:  59; 6HR MAX TEMP:  63; 6HR PCP:  0.04;

ROGERS         CLOUDY    58  57  97 W7        29.88R
6HR MIN TEMP:  58; 6HR MAX TEMP:  63; 6HR PCP:  0.03;

SILOAM SPGS    CLOUDY    57  54  88 W6        29.87F
6HR MIN TEMP:  57; 6HR MAX TEMP:  63;

HIGHFILL       CLOUDY    59  58  96 W6        29.88R
6HR MIN TEMP:  59; 6HR MAX TEMP:  63; 6HR PCP:  0.03;

SPRINGDALE     CLOUDY    61  57  88 W8        29.89R
$$

ARZ004-005-016-231300-
NORTH CENTRAL ARKANSAS

CITY           SKY/WX    TMP DP  RH WIND       PRES   REMARKS
BATESVILLE     CLOUDY    57  55  94 CALM      29.84S
6HR MIN TEMP:  55; 6HR MAX TEMP:  59;

FLIPPIN        CLOUDY    59  50  72 CALM      29.81F
6HR MIN TEMP:  57; 6HR MAX TEMP:  61;

MTN HOME       CLOUDY    59  53  80 CALM      29.83S
6HR MIN TEMP:  57; 6HR MAX TEMP:  60;

$$

ARZ040-041-231300-
WEST CENTRAL ARKANSAS

CITY           SKY/WX    TMP DP  RH WIND       PRES   REMARKS
MENA           MOCLDY    61  61 100 CALM      29.88R
$$

ARZ009-017-025-026-028-231300-
NORTHEAST ARKANSAS

CITY           SKY/WX    TMP DP  RH WIND       PRES   REMARKS
JONESBORO      CLOUDY    61  58  90 CALM      29.82S
6HR MIN TEMP:  56; 6HR MAX TEMP:  61;

NEWPORT        PTSUNNY   61  58  90 CALM      29.83S
6HR MIN TEMP:  59; 6HR MAX TEMP:  62;

WALNUT RIDGE   PTSUNNY   61  55  82 NW3       29.83R
6HR MIN TEMP:  61; 6HR MAX TEMP:  64;

BLYTHEVILLE    CLOUDY    65  62  90 CALM      29.81F
6HR MIN TEMP:  63; 6HR MAX TEMP:  66;

$$

ARZ022-023-033-042-044-231300-
CENTRAL ARKANSAS

CITY           SKY/WX    TMP DP  RH WIND       PRES   REMARKS
LITTLE ROCK    CLOUDY    61  58  90 W3        29.83S
6HR MIN TEMP:  60; 6HR MAX TEMP:  62;

N LITTLE ROCK    N/A     60  56  87 CALM      29.83S
6HR MIN TEMP:  58; 6HR MAX TEMP:  61;

JACKSONVILLE   CLOUDY    59  58  98 W3        29.81F
6HR MIN TEMP:  56; 6HR MAX TEMP:  59;

CONWAY           N/A     61  59  94 SW3       29.82R
SEARCY         SUNNY     58  58 100 CALM      29.84F
6HR MIN TEMP:  55; 6HR MAX TEMP:  59;

HOT SPRINGS    PTCLDY    59  57  93 NW5       29.85R
6HR MIN TEMP:  58; 6HR MAX TEMP:  61;

RUSSELLVILLE   CLOUDY    59  56  89 CALM      29.83F
6HR MIN TEMP:  58; 6HR MAX TEMP:  61;

CLINTON        CLOUDY    57  55  94 CALM      29.83F
$$

ARZ036-231300-
EAST ARKANSAS

CITY           SKY/WX    TMP DP  RH WIND       PRES   REMARKS
WEST MEMPHIS   MOSUNNY   62  61  96 CALM      29.80F
6HR MIN TEMP:  60; 6HR MAX TEMP:  65;

$$

ARZ050-053-066-070-073-231300-
SOUTHWEST ARKANSAS

CITY           SKY/WX    TMP DP  RH WIND       PRES   REMARKS
ARKADELPHIA      N/A     59  58  96 CALM      29.86S
6HR MIN TEMP:  58; 6HR MAX TEMP:  64; 6HR PCP: TRACE;

CAMDEN         PTCLDY    59  57  94 W3        29.85R
TEXARKANA      CLOUDY    59  58  96 N5        29.87R
6HR MIN TEMP:  58; 6HR MAX TEMP:  60;

EL DORADO      FOG       59  59 100 CALM      29.85R VSB 1/2
6HR MIN TEMP:  59; 6HR MAX TEMP:  62;

DE QUEEN       CLOUDY    60  60 100 W3        29.86R
6HR MIN TEMP:  59; 6HR MAX TEMP:  61; 6HR PCP: TRACE;

$$

ARZ056-057-069-231300-
SOUTHEAST ARKANSAS

CITY           SKY/WX    TMP DP  RH WIND       PRES   REMARKS
PINE BLUFF     CLOUDY    63  59  87 CALM      29.82F
6HR MIN TEMP:  62; 6HR MAX TEMP:  64;

STUTTGART      CLOUDY    64  52  63 NW6       29.83S
6HR MIN TEMP:  63; 6HR MAX TEMP:  66;

MONTICELLO     SUNNY     61  59  93 CALM      29.81F
6HR MIN TEMP:  60; 6HR MAX TEMP:  63;


$$






USA.gov is the U.S. government's official web portal to all federal, state and local government web resources and services.